Location: Agenbach
(47.2667°N, 11.4500°E)
Time: 16:52:56
(UTC+00:00)

CZ-4C R/B - Pass Details

Date: 07 June 2020
Orbit: 634 x 1368 km, 63.4° (Epoch: 12 July)

Event Time Altitude Azimuth Distance (km) Brightness Sun altitude
Exits shadow 01:16:43 - 266° (W) 2,903 4.7 -14.6°
Reaches altitude 10° 01:18:26 10° 275° (W) 2,359 4.3 -14.5°
Maximum altitude 01:23:06 28° 334° (NNW) 1,607 4.0 -14.1°
Drops below altitude 10° 01:28:33 10° 32° (NNE) 2,785 6.4 -13.6°
Sets 01:31:51 0° 44° (NE) 3,877 7.4 -13.3°
